Location: Grasslands National Park East Block
(49.0708°N, 106.5295°W)
Time: 23:18:16
(UTC-06:00)

SR - Pass Details

Date: 26 October 2019
Orbit: 574 x 882 km, 66.7° (Epoch: 18 November)

Event Time Altitude Azimuth Distance (km) Brightness Sun altitude
Exits shadow 06:07:19 - 324° (NW) 2,723 ? -16.4°
Reaches altitude 10° 06:07:51 10° 324° (NW) 2,527 ? -16.3°
Maximum altitude 06:13:48 89° 56° (NE) 888 ? -15.3°
Drops below altitude 10° 06:19:42 10° 146° (SE) 2,516 ? -14.3°
Sets 06:22:09 0° 146° (SSE) 3,430 ? -13.9°
